Change the Weather History Date:

Friday, November 22, 2013

  Actual Average Record
Temperature  
Mean Temperature 49 °F -  
Max Temperature 56 °F 63 °F 73 °F (1933)
Min Temperature 42 °F 43 °F 29 °F (1931)
Degree Days  
Heating Degree Days 16 12  
Month to date heating degree days 194 190  
Since 1 July heating degree days 270 253  
Cooling Degree Days 0 0  
Month to date cooling degree days 0 0  
Year to date cooling degree days 1718 1696  
Moisture  
Dew Point 34 °F    
Average Humidity 51    
Maximum Humidity 70    
Minimum Humidity 32    
Precipitation  
Precipitation 0.00 in 0.05 in 0.70 in (1965)
Month to date precipitation 1.11 0.95  
Year to date precipitation 4.45 10.66  
Since 1 July precipitation 1.24 1.91  
Snow  
Snow 0.00 in - 0.00 in (2002)
Month to date snowfall 0.0  
Since 1 July snowfall 0.0  
Since 1 September snowfall 0.0  
Snow Depth -    
Sea Level Pressure  
Sea Level Pressure 29.97 in    
Wind  
Wind Speed 7 mph (NW)    
Max Wind Speed 15 mph    
Max Gust Speed 20 mph    
Visibility 9 miles    
Events      
T = Trace of Precipitation, MM = Missing Value Source: NWS Daily Summary

Daily Weather History Graph

Daily Weather History Graph

Search for Another Location

Airport or City:

Trip Planner

Search our weather history database for the weather conditions in past years. The results will help you decide how hot, cold, wet, or windy it might be!

Date:

Astronomy

Nov. 22, 2013 Rise Set
Actual Time 6:51 AM PST 4:48 PM PST
Civil Twilight 6:23 AM PST 5:16 PM PST
Nautical Twilight 5:50 AM PST 5:48 PM PST
Astronomical Twilight 5:19 AM PST 6:20 PM PST
Moon 9:23 PM PST (11/22) 10:39 AM PST (11/22)
Length of Visible Light 10h 53m
Length of Day
9h 57m
Waning Gibbous, 77% of the Moon is Illuminated
Nov 22
Waning Gibbous
Nov 25
Last Quarter
Dec 2
New
Dec 9
First Quarter
Dec 17
Full

Hourly Weather History & Observations

Time (PST) Temp. Windchill Dew Point Humidity Pressure Visibility Wind Dir Wind Speed Gust Speed Precip Events Conditions
12:53 AM 44.1 °F 39.5 °F 35.1 °F 71% 29.98 in 10.0 mi WNW 8.1 mph - N/A   Clear
1:53 AM 43.0 °F 40.3 °F 34.0 °F 71% 29.99 in 10.0 mi NW 4.6 mph - N/A   Clear
2:53 AM 42.1 °F 37.7 °F 33.1 °F 70% 29.99 in 10.0 mi NW 6.9 mph - N/A   Clear
3:53 AM 44.1 °F 39.5 °F 30.9 °F 60% 29.99 in 10.0 mi WNW 8.1 mph - N/A   Clear
4:53 AM 44.1 °F 37.7 °F 28.9 °F 55% 29.98 in 10.0 mi WNW 12.7 mph - N/A   Clear
5:53 AM 44.1 °F 38.1 °F 28.9 °F 55% 29.99 in 10.0 mi WNW 11.5 mph - N/A   Clear
6:53 AM 45.0 °F 38.9 °F 27.0 °F 49% 29.99 in 10.0 mi WNW 12.7 mph - N/A   Clear
7:53 AM 45.0 °F 39.3 °F 26.1 °F 48% 30.01 in 10.0 mi WNW 11.5 mph - N/A   Mostly Cloudy
8:53 AM 46.9 °F - 26.1 °F 44% 30.03 in 10.0 mi NW 5.8 mph - N/A   Clear
9:53 AM 48.9 °F - 26.1 °F 41% 30.01 in 10.0 mi NW 8.1 mph - N/A   Clear
10:53 AM 51.1 °F - 26.1 °F 38% 30.00 in 10.0 mi NW 8.1 mph - N/A   Clear
11:53 AM 53.1 °F - 26.1 °F 35% 29.98 in 10.0 mi Variable 3.5 mph - N/A   Clear
12:53 PM 55.0 °F - 26.1 °F 33% 29.96 in 10.0 mi Calm Calm - N/A   Clear
1:53 PM 55.9 °F - 30.0 °F 37% 29.95 in 10.0 mi East 5.8 mph - N/A   Clear
2:53 PM 55.0 °F - 33.1 °F 43% 29.93 in 10.0 mi ESE 9.2 mph - N/A   Clear
3:53 PM 54.0 °F - 37.0 °F 53% 29.94 in 10.0 mi ESE 5.8 mph - N/A   Clear
4:53 PM 53.1 °F - 44.1 °F 71% 29.93 in 9.0 mi ESE 4.6 mph - N/A   Clear
5:53 PM 50.0 °F - 44.1 °F 80% 29.93 in 9.0 mi SE 5.8 mph - N/A   Clear
6:53 PM 48.0 °F - 44.1 °F 86% 29.93 in 7.0 mi Calm Calm - N/A   Clear
7:53 PM 46.0 °F - 42.1 °F 86% 29.95 in 7.0 mi Calm Calm - N/A   Clear
8:53 PM 45.0 °F 41.8 °F 43.0 °F 93% 29.96 in 6.0 mi ESE 5.8 mph - N/A   Clear
9:53 PM 42.1 °F 39.2 °F 41.0 °F 96% 29.99 in 5.0 mi SE 4.6 mph - N/A   Clear
10:53 PM 43.0 °F - 41.0 °F 93% 29.99 in 5.0 mi Calm Calm - N/A   Clear
11:53 PM 44.1 °F - 42.1 °F 93% 29.99 in 5.0 mi Calm Calm - N/A   Clear